LFGA

Details ICAO LFGA (CMR)
Name Houssen
Region France
Timezone Europe/Paris (UTC+2.0)
Plans Departing 55
Arriving 42
Stats Elevation 627 ft / 191 m (AMSL)
Location 48.109701° 7.358965°
Runways 1
Magnetic Variation 2.091° E
Sunrise 2018-05-21 03:46:02 UTC / 2018-05-21 05:46:02 Local
Sunset 2018-05-21 19:11:07 UTC / 2018-05-21 21:11:07 Local
Advertisement - Login to hide

Runways

ID Width Length Bearing (true) Bearing (mag) Surface Threshold Offset Overrun Length
01 98 ft / 30 m 5,298 ft / 1,615 m 10.98° 8.89° Asphalt 689 ft / 210 m 0 ft / 0 m
19 98 ft / 30 m 5,298 ft / 1,615 m 190.98° 188.89° Asphalt 0 ft / 0 m 0 ft / 0 m

Approach Navaids

Runway Type Ident Frequency Range Bearing (true) Bearing (mag) Slope Elevation
19 Localiser HO 110.70 MHz 18 nm / 33 km 191.00° 188.91° - 627 ft / 191 m (AMSL)
19 Glidescope HO 110.70 MHz 10 nm / 19 km 190.98° 188.89° 3.80° 627 ft / 191 m (AMSL)

Map

Weather


0- 5 10 15 20 25 30 35+ Temperature / ° C

Clouds and Precipitation
Forecast for 2018-05-21 06:00 UTC. Updated 42 minutes ago

Ground ~20,000 ft ~40,000 ft Winds

METAR

LFGA 210600Z AUTO VRB01KT CAVOK 15/12 Q1015

TAF

Not found

Frequencies

Recorded 119.00 MHz HOUSSEN FSS
Unicom 119.00 MHz HOUSSEN MULT
Approach 119.35 MHz BASLE APP
Recorded 121.87 MHz LFGA ATIS
Tower 119.00 MHz HOUSSEN TWR
Approach 118.95 MHz COLMAR APP
Warning: Do not use this data for real-world aviation or navigation. No guarantee of current accuracy is given.